TimePDT,TemperatureF,Dew PointF,Humidity,Sea Level PressureIn,VisibilityMPH,Wind Direction,Wind SpeedMPH,Gust SpeedMPH,PrecipitationIn,Events,Conditions,WindDirDegrees,DateUTC
12:53 AM,24.1,16.0,71,30.42,10.0,South,3.5,-,N/A,,Clear,170,2013-05-01 07:53:00
1:53 AM,23.0,17.1,78,30.43,10.0,South,4.6,-,N/A,,Clear,170,2013-05-01 08:53:00
2:53 AM,23.0,15.1,72,30.44,10.0,Calm,Calm,-,N/A,,Clear,0,2013-05-01 09:53:00
3:53 AM,17.1,14.0,88,30.47,10.0,Calm,Calm,-,N/A,,Clear,0,2013-05-01 10:53:00
4:53 AM,19.9,16.0,85,30.49,10.0,Calm,Calm,-,N/A,,Clear,0,2013-05-01 11:53:00
5:53 AM,15.1,12.0,88,30.53,10.0,Calm,Calm,-,N/A,,Clear,0,2013-05-01 12:53:00
6:53 AM,21.9,17.1,82,30.55,10.0,Calm,Calm,-,N/A,,Clear,0,2013-05-01 13:53:00
7:53 AM,32.0,21.0,64,30.56,10.0,Calm,Calm,-,N/A,,Clear,0,2013-05-01 14:53:00
8:53 AM,37.4,21.2,52,30.50,10.0,Calm,Calm,-,N/A,,Clear,0,2013-05-01 15:53:00
9:53 AM,43.0,19.9,40,30.58,10.0,WSW,4.6,-,N/A,,Clear,240,2013-05-01 16:53:00
10:53 AM,45.0,18.0,34,30.59,10.0,Variable,3.5,-,N/A,,Clear,0,2013-05-01 17:53:00
11:53 AM,48.9,15.1,26,30.57,10.0,Calm,Calm,-,N/A,,Clear,0,2013-05-01 18:53:00
12:53 PM,50.0,14.0,24,30.58,10.0,Calm,Calm,-,N/A,,Clear,0,2013-05-01 19:53:00
1:53 PM,53.1,12.9,20,30.57,10.0,Variable,3.5,-,N/A,,Clear,0,2013-05-01 20:53:00
2:53 PM,55.9,12.0,18,30.56,10.0,North,5.8,-,N/A,,Clear,350,2013-05-01 21:53:00
3:53 PM,55.9,14.0,19,30.56,10.0,WNW,8.1,-,N/A,,Clear,300,2013-05-01 22:53:00
4:53 PM,57.0,14.0,18,30.55,10.0,WNW,9.2,-,N/A,,Clear,300,2013-05-01 23:53:00
5:53 PM,55.9,15.1,20,30.57,10.0,WNW,8.1,-,N/A,,Clear,300,2013-05-02 00:53:00
6:53 PM,54.0,14.0,21,30.56,10.0,NW,9.2,-,N/A,,Clear,310,2013-05-02 01:53:00
7:53 PM,48.0,14.0,26,30.57,10.0,WNW,6.9,-,N/A,,Clear,290,2013-05-02 02:53:00
8:53 PM,39.9,23.0,51,30.59,10.0,WSW,6.9,-,N/A,,Clear,240,2013-05-02 03:53:00
9:53 PM,36.0,21.9,57,30.61,10.0,Calm,Calm,-,N/A,,Clear,0,2013-05-02 04:53:00
10:53 PM,32.0,21.0,64,30.63,10.0,SSE,4.6,-,N/A,,Clear,160,2013-05-02 05:53:00
11:53 PM,25.0,18.0,75,30.64,10.0,Calm,Calm,-,N/A,,Clear,0,2013-05-02 06:53:00